This is the latest recevied weather packets stored in our database for station/object K2YYD-2. If no packets are shown the sender has not sent any weather packets the latest 10 day(s).
| Time | Temp. | Humidity | Pressure | Rain* | Wind** | Luminosity | Snow |
|---|---|---|---|---|---|---|---|
| 1777823216 | 11.11° C | 45% | 1007.2 hPa | 0 mm | - | 395 W/m² | - |
| 1777823095 | 11.11° C | 46% | 1007.2 hPa | 0 mm | - | 377 W/m² | - |
| 1777822975 | 10.56° C | 45% | 1007.2 hPa | 0 mm | - | 347 W/m² | - |
| 1777822854 | 11.11° C | 46% | 1007.2 hPa | 0 mm | - | 303 W/m² | - |
| 1777822735 | 11.11° C | 46% | 1007.3 hPa | 0 mm | - | 247 W/m² | - |
| 1777822615 | 11.11° C | 45% | 1007.3 hPa | 0 mm | - | 192 W/m² | - |
| 1777822495 | 11.67° C | 44% | 1007.3 hPa | 0 mm | - | 145 W/m² | - |
| 1777822375 | 11.67° C | 44% | 1007.3 hPa | 0 mm | - | 125 W/m² | - |
| 1777822255 | 11.67° C | 42% | 1007.2 hPa | 0 mm | - | 129 W/m² | - |
| 1777822134 | 11.67° C | 42% | 1007.1 hPa | 0 mm | - | 140 W/m² | - |
| 1777822016 | 12.22° C | 43% | 1007.2 hPa | 0 mm | - | 169 W/m² | - |
| 1777821895 | 12.22° C | 42% | 1007.2 hPa | 0 mm | - | 231 W/m² | - |
| 1777821775 | 11.67° C | 44% | 1007.2 hPa | 0 mm | - | 406 W/m² | - |
| 1777821655 | 11.67° C | 46% | 1007.1 hPa | 0 mm | - | 318 W/m² | - |
| 1777821536 | 11.11° C | 45% | 1007.1 hPa | 0 mm | - | 489 W/m² | - |
| 1777821416 | 11.11° C | 46% | 1007.2 hPa | 0 mm | - | 194 W/m² | - |
| 1777821295 | 11.11° C | 47% | 1007.2 hPa | 0 mm | - | 731 W/m² | - |
| 1777821176 | 11.11° C | 46% | 1007.3 hPa | 0 mm | - | 328 W/m² | - |
| 1777821056 | 11.11° C | 46% | 1007.3 hPa | 0 mm | - | 284 W/m² | - |
| 1777820935 | 11.11° C | 46% | 1007.1 hPa | 0 mm | - | 227 W/m² | - |
| 1777820815 | 11.67° C | 46% | 1007.3 hPa | 0 mm | - | 172 W/m² | - |
| 1777820695 | 11.67° C | 46% | 1007.2 hPa | 0 mm | - | 158 W/m² | - |
| 1777820576 | 12.22° C | 44% | 1007.2 hPa | 0 mm | - | 136 W/m² | - |
| 1777820456 | 12.22° C | 44% | 1007.2 hPa | 0 mm | - | 145 W/m² | - |
| 1777820335 | 12.22° C | 44% | 1007.2 hPa | 0 mm | - | 194 W/m² | - |
* Rain latest hour (hover to see other rain measurements)
** Current wind speed in m/s (hover to see current wind gust speed)